Regional Weather Roundup
Issued by NWS Grand Forks, ND

Home | Current Version | Previous Version | Text Only | Print | Product List | Glossary Off
Versions: 1 2 3 4 5 6 7 8 9 10 11 12 13 14 15 16 17 18 19 20 21 22 23 24 25 26 27 28 29 30 31 32 33 34 35 36 37 38 39 40 41 42 43 44 45 46 47 48 49 50

000
ASUS43 KFGF 212131
RWRFGF
PRAIRIE TO PINES  WEATHER ROUNDUP
NATIONAL WEATHER SERVICE EASTERN NORTH DAKOTA/GRAND FORKS ND
400 PM CDT SUN SEP 21 2014

 **SATELLITE DATA USED TO AUGMENT SKY COVER AT AUTOMATED STATIONS**
 *****  WEATHER ACROSS EASTERN NORTH DAKOTA  *****

CITY           SKY/WX    TMP DP  RH WIND       PRES   REMARKS
GRAND FORKS    MOSUNNY   63  50  62 NW6       30.20F
GRAND FRKS AFB MOSUNNY   66  51  59 N7        30.21F
GRAND FRKS NWS   N/A     66 N/A N/A N3          N/A
DEVILS LAKE    MOSUNNY   66  46  48 CALM      30.20S
FARGO          MOSUNNY   65  50  58 VRB7      30.21F
WAHPETON ARPT  PTCLDY    64  46  52 N10       30.22S
$$

 ***** WEATHER ACROSS CENTRAL AND WESTERN NORTH DAKOTA  *****

CITY           SKY/WX    TMP DP  RH WIND       PRES   REMARKS
BISMARCK       SUNNY     74  41  30 NW9       30.24F
MINOT          SUNNY     72  39  30 VRB3      30.21F
JAMESTOWN      MOSUNNY   66  48  52 NW7       30.22F
MINOT AFB      SUNNY     71  39  32 VRB6      30.20F
GARRISON         N/A     71  42  35 W6        30.23F
WILLISTON      SUNNY     73  37  27 SE8       30.23F
DICKINSON      SUNNY     70  37  29 SE5       30.25F
HETTINGER      SUNNY     71  37  28 W3        30.27F
$$

 *****  OTHER AIRPORT OBSERVATIONS IN OUR AREA  *****

CITY           SKY/WX    TMP DP  RH WIND       PRES   REMARKS
WALHALLA         N/A     66  48  52 W7        30.18F
GRAFTON AIRPOR FAIR      64  50  59 W3        30.20S
VALLEY CITY AR CLOUDY    68  50  52 N9        30.22F
CANDO          FAIR      68  46  45 W6G16     30.20F
CAVALIER APRT  FAIR      64  48  55 S3        30.19S
GWINNER        MOCLDY    68  46  45 N6        30.24S
SHEYENNE NWR     N/A     68  49  50 NW5       29.95S
ROLLA          FAIR      66  45  45 W9        30.21F
 ***** THE ABOVE OBSERVATIONS ARE NON NWS ARE NOT QUALITY
       CONTROLLED AND MAY MIS-REPORT RAIN FOR SNOW...
$$

  *****  WEATHER ACROSS NORTHERN MINNESOTA  *****

CITY           SKY/WX    TMP DP  RH WIND       PRES   REMARKS
FLAG ISLAND    CLOUDY    59  50  72 NW12      30.15S
WARROAD        CLOUDY    57  52  82 W7        30.19R
ROSEAU         MOSUNNY   61  52  72 NW7       30.19S
HALLOCK        SUNNY     64  48  55 W6        30.19S
THF RVR FALLS  CLOUDY    59  48  67 W7        30.21S
BAUDETTE       SUNNY     63  48  58 NW9       30.17S
WASKISH        MOSUNNY   61  54  77 SW6       30.18S
CROOKSTON      CLOUDY    61  52  72 W3        30.22S
STEPHEN NDAWN    N/A     63  52  67 NW2         N/A
GREENBUSH NDAW   N/A     61  54  77 W6          N/A
$$
  *****  WEATHER ACROSS CENTRAL AND WEST MINNESOTA  *****

CITY           SKY/WX    TMP DP  RH WIND       PRES   REMARKS
FOSSTON        CLOUDY    57  50  77 W6        30.22S
BEMIDJI        PTSUNNY   59  49  68 W10       30.19S
PARK RAPIDS    CLOUDY    60  48  64 NW12      30.19S
ELBOW LAKE     FAIR      61  49  65 N10       30.22R
WADENA         PTSUNNY   57  48  72 NW9       30.21R
DETROIT LAKES  CLOUDY    57  50  77 NW10G16   30.24S
MOORHEAD       MOSUNNY   64  54  68 N7        30.23S
FERGUS FALLS   MOSUNNY   63  46  55 N10G18    30.23R
MORRIS MN      SUNNY     64  50  59 NW14      30.21S
STAPLES        CLOUDY    61  48  63 NW12      30.19S
$$
  *****  WEATHER ELSEWHERE ACROSS MINNESOTA  *****

CITY           SKY/WX    TMP DP  RH WIND       PRES   REMARKS
DULUTH         SUNNY     63  37  38 N13       30.12R
INTRNTL FALLS  SUNNY     61  45  55 NW8       30.14F
ELY            SUNNY     59  41  51 NW7       30.13R
CLOQUET        SUNNY     63  39  42 NW10      30.13R
WHEATON        PTSUNNY   64  48  55 N10       30.24R
BRAINERD       SUNNY     63  46  54 N9        30.18S
HIBBING        SUNNY     64  41  42 N13G20    30.14S
ALEXANDRIA     CLOUDY    60  49  66 N12       30.23R
SAINT CLOUD    MOSUNNY   69  47  45 NW13      30.15F
MINNEAPOLIS    MOSUNNY   66  45  46 NW16      30.14S
$$

  *****  WEATHER ACROSS SOUTH DAKOTA  *****

CITY           SKY/WX    TMP DP  RH WIND       PRES   REMARKS
SIOUX FALLS    MOSUNNY   71  45  39 N12       30.22F
BROOKINGS      NOT AVBL
WATERTOWN      MOSUNNY   67  43  41 NW14      30.23S
HURON          MOSUNNY   70  44  39 N14G21    30.23F
SISSETON         N/A     69  48  47 N14G20    30.21S
ABERDEEN       MOSUNNY   71  46  40 NW8       30.23F
MITCHELL       SUNNY     72  43  35 N14       30.24F
PIERRE         SUNNY     73  42  32 NW8       30.24F
MOBRIDGE       SUNNY     73  43  33 N5        30.23F
RAPID CITY     SUNNY     72  36  26 E3        30.28F
$$

  *****  SOME WEATHER IN NEARBY STATES *****

CITY           SKY/WX    TMP DP  RH WIND       PRES   REMARKS
GLASGOW MT     SUNNY     73  37  27 S8        30.20F
GREAT FALLS MT SUNNY     75  45  34 E9        30.12F
CHEYENNE WY    SUNNY     68  44  42 S16G25    30.34S
SCOTTSBLUFF NE SUNNY     75  40  28 E17       30.29F
OMAHA NE       MOSUNNY   71  47  42 N15G28    30.20S
DES MOINES IA  PTSUNNY   71  47  42 NW18      30.14S
DAVENPORT IA   CLOUDY    63  49  60 NW12      30.08R
CHICAGO IL     PTSUNNY   69  49  48 NE18      29.97R
EAU CLAIRE WI  MOSUNNY   65  43  44 N9G21     30.09R
LA CROSSE WI   PTSUNNY   68  46  45 NW16      30.07R
$$

  *****  SOME NATIONAL WEATHER *****

CITY           SKY/WX    TMP DP  RH WIND       PRES   REMARKS
LA GUARDIA NY  CLOUDY    75  66  73 VRB7      29.65F
RALEIGH NC     MOSUNNY   84  64  50 W8        29.80R
ATLANTA GA     MOSUNNY   87  59  38 W10       29.96F
NEW ORLEANS LA MOSUNNY   88  66  48 NE7       29.97F HX  90
OKLAHOMA CITY  PTSUNNY   80  64  58 N15G22    30.12R
ALBUQUERQUE NM PTSUNNY   80  50  34 E24G30    30.23F
SALT LAKE CITY HVY RAIN  60  59  96 W8        30.19S FOG
LOS ANGELES CA MOSUNNY   75  58  55 W13       29.96F
BOISE ID       CLOUDY    80  43  26 SE17      30.01S
SEATTLE WA     SUNNY     78  55  44 S12       29.87F
$$

*** WEATHER ACROSS MANITOBA...SASKATCHEWAN AND ONTARIO ***
                ***ONTARIO***

CITY           SKY/WX    TMP DP  RH WIND       PRES   REMARKS
GERALDTON      CLOUDY    45  37  76 N9        30.04S
THUNDER BAY    MOSUNNY   61  39  44 N7        30.06
SIOUX LOOKOUT  MOSUNNY   59  43  55 W10       30.10F
TORONTO        MOSUNNY   72  54  53 W16G26    29.58R
BIG TROUT LK   SUNNY     50  36  57 W7G17     30.03S
PICKLE LAKE    MOSUNNY   54  32  43 W7        30.06F
DRYDEN         PTSUNNY   57  46  67 W9        30.12F
KENORA         PTSUNNY   57  48  72 W8        30.16S
$$
                *** MANITOBA***

CITY           SKY/WX    TMP DP  RH WIND       PRES   REMARKS
BRANDON        MOSUNNY   70  48  46 W13G21    30.17F
DAUPHIN        SUNNY     72  46  40 W14       30.12F
ISLAND LAKE    PTSUNNY   57  46  67 W6        30.03F
PILOT MOUND    NOT AVBL
THE PAS        MOSUNNY   72  43  35 W18       29.97F
THOMPSON       PTSUNNY   63  54  72 S10       29.88F
WINNIPEG       PTSUNNY   63  50  63 W8        30.17F
LYNN LAKE      SUNNY     66  45  45 SW12G18   29.82F
CHURCHILL      CLOUDY    46  41  81 CALM      29.79F
GILLAM         PTSUNNY   55  46  71 SW14G20   29.87F
$$
                ***SASKATCHEWAN***

CITY           SKY/WX    TMP DP  RH WIND       PRES   REMARKS
ESTEVAN        SUNNY     72  41  33 SW3       30.21F
KINDERSLEY     SUNNY     75  45  33 S14       30.10F
LLOYDMINSTER   MOSUNNY   79  43  27 SW14      30.02F
PRINCE ALBERT  SUNNY     79  46  31 W17G23    30.01F
REGINA         SUNNY     73  41  31 W9        30.17F
YORKTON        SUNNY     72  39  30 W15       30.13F
N. BATTLEFORD  SUNNY     81  43  26 W14       30.07F
LA RONGE       MOSUNNY   73  50  43 SW12G23   29.92F
SASKATOON      SUNNY     79  45  29 SW15      30.09F
SWIFT CURRENT  SUNNY     75  36  23 SW15      30.14F
$$
NOTE: THESE ARE AUTOMATED STATIONS WITH LIMITED QUALITY CONTROL
      "FAIR" INDICATES FEW OR NO CLOUDS BELOW 12,000 FEET WITH NO
      SIGNIFICANT WEATHER AND/OR OBSTRUCTIONS TO VISIBILITY.
      SKY/WX - SKY CONDITION AND SIGNIFICANT WEATHER.
      TMP - AIR TEMPERATURE.    DP   - DEWPOINT TEMPERATURE.
      RH  - RELATIVE HUMIDITY.  PRES - PRESSURE.
      HX  - HEAT INDEX.         WCI  - WIND CHILL INDEX.
$



USA.gov is the U.S. government's official web portal to all federal, state and local government web resources and services.